Location: Colorado Springs
(38.8340°N, 104.8210°W)
Time: 03:09:46
(UTC-06:00)

ISS - Pass Details

Date: 10 October 2017
Orbit: 400 x 408 km, 51.6° (Epoch: 24 October)

Event Time Altitude Azimuth Distance (km) Brightness Sun altitude
Rises 19:14:05 0° 317° (NW) 2,326 0.7 -9.8°
Reaches altitude 10° 19:16:51 10° 342° (NNW) 1,466 -0.8 -10.4°
Maximum altitude 19:18:50 15° 20° (NNE) 1,204 -1.6 -10.8°
Enters shadow 19:20:23 12° 51° (NE) 1,370 -1.6 -11.1°
